• Join FlightAware (Why Join?)
  • Login
  • US Flag 
06:24AM EST


 

Airport Tracker/Info


-or-


 

Live Flight TrackerFlight Track Log ✈ DAL6067 ✈ 17-Apr-2013 ✈ KDTW - KCMH

Flight Track Log - Related Links

Times and Time Zones

All times are in EDT time to prevent confusion due to time zone crossing. See the DAL6067 flight status page for this flight to view local times or setup timezone preferences in your user account.

Time Position Orientation Groundspeed Altitude Reporting Facility
EDT Latitude Longitude Course Direction KTS MPH feet Rate Location/Type
12:12PM 42.2292 -83.3342 180° South 159 183 1,200  Level Cleveland Center
12:13PM 42.2744 -83.2744 44° Northeast 219 252 3,900 2,460 Climbing Cleveland Center
12:14PM 42.2931 -83.1908 73° East 232 267 7,000 2,520 Climbing Cleveland Center
12:15PM 41.9307 -83.2929 180° South  Level Estimated
12:15PM 42.2547 -83.1389 135° Southeast 241 277 8,800  Level Cleveland Center
12:16PM 41.8381 -83.3216 193° South  Level FlightAware Approximate
12:16PM 42.1947 -83.1167 165° South 263 303 11,000  Level Cleveland Center
12:17PM 41.7444 -83.2991 180° South  Level Estimated
12:17PM 42.1272 -83.1478 199° South 246 283 12,600  Level Cleveland Center
12:18PM 42.0450 -83.1836 198° South 270 311 13,700 1,020 Climbing Cleveland Center
12:19PM 41.9631 -83.2164 197° South 326 375 14,700 1,020 Climbing Cleveland Center
12:20PM 41.8578 -83.2625 198° South 358 412 15,800 600 Climbing Cleveland Center
12:21PM 41.7472 -83.2689 182° South 369 425 16,000  Climbing Cleveland Center
12:22PM 41.6344 -83.2669 179° South 394 453 15,900 -60 Descending Cleveland Center
12:23PM 41.5222 -83.2622 178° South 405 466 15,900  Level Cleveland Center
12:24PM 41.4117 -83.2606 179° South 405 466 16,000  Climbing Cleveland Center
12:25PM 41.3011 -83.2589 179° South 405 466 16,000  Level Cleveland Center
12:26PM 41.1886 -83.2542 178° South 405 466 16,000  Level Cleveland Center
12:27PM 41.0886 -83.2500 178° South 405 466 16,000 -420 Level Cleveland Center
12:28PM 40.9761 -83.2483 179° South 405 466 15,200 -1,200 Descending Cleveland Center
12:29PM 40.8678 -83.2439 178° South 398 458 13,700 -1,620 Descending Cleveland Center
12:30PM 40.7594 -83.2422 179° South 398 458 12,100 -1,440 Descending Cleveland Center
12:32PM 40.5822 -83.2378 179° South 375 432 10,000 -900 Descending Indianapolis Center
12:32PM 40.5019 -83.2281 175° South 371 427 10,000  Level Indianapolis Center
12:33PM 40.4814 -83.2214 166° South 364 419 10,000  Level Indianapolis Center
12:33PM 40.4092 -83.2086 172° South 323 372 10,000 -120 Level Indianapolis Center
12:34PM 40.3894 -83.2022 166° South 327 376 9,900 -1,320 Descending Indianapolis Center
12:34PM 40.3306 -83.1939 174° South 279 321 8,700 -1,680 Descending Indianapolis Center
12:35PM 40.3114 -83.1894 170° South 283 326 8,200 -1,920 Descending Indianapolis Center
12:35PM 40.2497 -83.1817 175° South 280 322 6,800 -1,800 Descending Indianapolis Center
12:36PM 40.2336 -83.1772 168° South 279 321 6,400 -1,500 Descending Indianapolis Center
12:36PM 40.1775 -83.1675 172° South 260 299 5,300 -1,560 Descending Indianapolis Center
12:37PM 40.1619 -83.1647 172° South 267 307 4,800 -1,320 Descending Indianapolis Center
12:37PM 40.1094 -83.1542 171° South 233 268 4,000 -840 Descending Indianapolis Center
12:38PM 40.0953 -83.1528 176° South 252 290 4,000  Level Indianapolis Center
12:38PM 40.0514 -83.1444 172° South 207 238 4,000 -120 Level Indianapolis Center
12:39PM 40.0386 -83.1403 166° South 222 255 3,900 -720 Descending Indianapolis Center
12:39PM 40.0133 -83.0911 124° Southeast 225 259 3,300 -900 Descending Indianapolis Center
12:40PM 40.0108 -83.0564 95° East 224 258 3,000 -840 Descending Indianapolis Center
12:40PM 40.0078 -83.0169 96° East 193 222 2,500 -900 Descending Indianapolis Center
12:41PM 40.0067 -82.9889 93° East 203 234 2,100 -960 Descending Indianapolis Center